軌道要素
Epoch 2014 Apr. 13.0 TT = JDT 2456760.5
T 2014 Apr. 9.61354 TT MPC
q 1.6453294 (2000.0) P Q
n 0.16319128 Peri. 183.71034 -0.99747866 +0.07086612
a 3.3164345 Node 0.41463 -0.04377104 -0.57237599
e 0.5038860 Incl. 31.52903 -0.05586075 -0.81692333
P 6.04
From 719 observations 1991 Mar. 15-2014 Feb. 10, mean residual 0".5.
|